• Em Portugal
  • Lista de países
  • Para 7 dias
  • Temperatura da água
  • Mapas de satélite
  • Mapa do tempo
  • Widgets de tempo
  • user-avatar
    Iniciar Sessão

    Previsão horária em Lezhe

    Hoje, 15 Julho, Domingo

    Tempo Temperatura Precipitação Vento Pressão Humidade
    00:00 +21°C° 0 mm 2 m/s 737 mmHg 72%
    01:00 +21°C° 0 mm 2 m/s 737 mmHg 71%
    02:00 +20°C° 0 mm 2 m/s 737 mmHg 72%
    03:00 +20°C° 0 mm 2 m/s 737 mmHg 74%
    04:00 +19°C° 0 mm 2 m/s 737 mmHg 75%
    05:00 +21°C° 0 mm 2 m/s 737 mmHg 71%
    06:00 +24°C° 0 mm 2 m/s 737 mmHg 67%
    07:00 +26°C° 0 mm 1 m/s 737 mmHg 61%
    08:00 +28°C° 0 mm 1 m/s 737 mmHg 54%
    09:00 +29°C° 0 mm 1 m/s 737 mmHg 47%
    10:00 +31°C° 0 mm 1 m/s 737 mmHg 40%
    11:00 +32°C° 0 mm 1 m/s 736 mmHg 38%
    12:00 +32°C° 0 mm 2 m/s 736 mmHg 37%
    13:00 +33°C° 0 mm 3 m/s 736 mmHg 37%
    14:00 +33°C° 0 mm 3 m/s 736 mmHg 39%
    15:00 +33°C° 0 mm 3 m/s 736 mmHg 42%
    16:00 +31°C° 0 mm 3 m/s 736 mmHg 44%
    17:00 +29°C° 0,1 mm 3 m/s 735 mmHg 51%
    18:00 +27°C° 0,1 mm 2 m/s 735 mmHg 59%
    19:00 +25°C° 0,1 mm 2 m/s 735 mmHg 66%
    20:00 +24°C° 0,1 mm 2 m/s 736 mmHg 67%
    21:00 +24°C° 0,1 mm 1 m/s 736 mmHg 67%
    22:00 +23°C° 0,1 mm 1 m/s 736 mmHg 68%
    23:00 +22°C° 0 mm 1 m/s 736 mmHg 67%

    Amanhã, 16 Julho, Segunda-feira

    Tempo Temperatura Precipitação Vento Pressão Humidade
    00:00 +22°C° 0 mm 1 m/s 736 mmHg 66%
    01:00 +22°C° 0 mm 1 m/s 736 mmHg 65%
    02:00 +22°C° 0 mm 1 m/s 736 mmHg 66%
    03:00 +21°C° 0 mm 1 m/s 736 mmHg 66%
    04:00 +21°C° 0 mm 1 m/s 736 mmHg 67%
    05:00 +23°C° 0 mm 1 m/s 736 mmHg 64%
    06:00 +25°C° 0 mm 1 m/s 736 mmHg 62%
    07:00 +26°C° 0 mm 1 m/s 736 mmHg 59%
    08:00 +28°C° 0 mm 1 m/s 736 mmHg 55%
    09:00 +29°C° 0 mm 2 m/s 736 mmHg 51%
    10:00 +30°C° 0 mm 2 m/s 736 mmHg 48%
    11:00 +31°C° 0,1 mm 3 m/s 736 mmHg 47%
    12:00 +31°C° 0,1 mm 3 m/s 736 mmHg 47%
    13:00 +33°C° 0,1 mm 4 m/s 736 mmHg 47%
    14:00 +32°C° 0,1 mm 4 m/s 736 mmHg 49%
    15:00 +31°C° 0,1 mm 3 m/s 735 mmHg 51%
    16:00 +30°C° 0,1 mm 3 m/s 735 mmHg 53%
    17:00 +29°C° 0 mm 2 m/s 735 mmHg 59%
    18:00 +27°C° 0 mm 2 m/s 735 mmHg 65%
    19:00 +25°C° 0 mm 1 m/s 735 mmHg 72%
    20:00 +24°C° 0 mm 1 m/s 735 mmHg 72%
    21:00 +23°C° 0 mm 1 m/s 735 mmHg 73%
    22:00 +23°C° 0 mm 1 m/s 735 mmHg 74%
    23:00 +22°C° 0 mm 1 m/s 735 mmHg 73%

    Depois de amanhã, 17 Julho, Terça-feira

    Tempo Temperatura Precipitação Vento Pressão Humidade
    00:00 +21°C° 0 mm 2 m/s 735 mmHg 72%
    01:00 +21°C° 0 mm 2 m/s 735 mmHg 71%
    02:00 +21°C° 0,2 mm 2 m/s 734 mmHg 72%
    03:00 +20°C° 0,2 mm 2 m/s 734 mmHg 73%
    04:00 +20°C° 0,2 mm 2 m/s 734 mmHg 74%
    05:00 +23°C° 0,6 mm 2 m/s 733 mmHg 71%
    06:00 +24°C° 0,6 mm 2 m/s 733 mmHg 69%
    07:00 +25°C° 0,6 mm 2 m/s 733 mmHg 66%
    08:00 +27°C° 0,1 mm 2 m/s 733 mmHg 60%
    09:00 +29°C° 0,1 mm 2 m/s 733 mmHg 54%
    10:00 +30°C° 0,1 mm 1 m/s 732 mmHg 47%
    11:00 +31°C° 0,1 mm 2 m/s 732 mmHg 47%
    12:00 +31°C° 0,1 mm 3 m/s 732 mmHg 46%
    13:00 +33°C° 0,1 mm 4 m/s 732 mmHg 46%
    14:00 +32°C° 0,2 mm 4 m/s 732 mmHg 49%
    15:00 +32°C° 0,2 mm 4 m/s 732 mmHg 52%
    16:00 +30°C° 0,2 mm 5 m/s 732 mmHg 54%
    17:00 +28°C° 0,2 mm 4 m/s 732 mmHg 62%
    18:00 +26°C° 0,2 mm 3 m/s 732 mmHg 69%
    19:00 +25°C° 0,2 mm 3 m/s 732 mmHg 76%
    20:00 +24°C° 0,2 mm 3 m/s 733 mmHg 79%
    21:00 +22°C° 0,2 mm 3 m/s 733 mmHg 83%
    22:00 +21°C° 0,2 mm 2 m/s 733 mmHg 87%
    23:00 +20°C° 0,1 mm 2 m/s 733 mmHg 87%

    18 Julho, Quarta-feira

    Tempo Temperatura Precipitação Vento Pressão Humidade
    00:00 +20°C° 0,1 mm 2 m/s 733 mmHg 87%
    01:00 +20°C° 0,1 mm 2 m/s 733 mmHg 87%
    02:00 +20°C° 0,2 mm 2 m/s 733 mmHg 87%
    03:00 +19°C° 0,2 mm 2 m/s 733 mmHg 87%
    04:00 +19°C° 0,2 mm 2 m/s 733 mmHg 88%
    05:00 +21°C° 0 mm 2 m/s 733 mmHg 81%
    06:00 +23°C° 0 mm 2 m/s 734 mmHg 75%
    07:00 +25°C° 0 mm 2 m/s 734 mmHg 69%
    08:00 +26°C° 0 mm 2 m/s 734 mmHg 62%
    09:00 +28°C° 0 mm 2 m/s 734 mmHg 54%
    10:00 +29°C° 0 mm 2 m/s 734 mmHg 47%
    11:00 +30°C° 0 mm 3 m/s 734 mmHg 46%
    12:00 +30°C° 0 mm 3 m/s 734 mmHg 44%
    13:00 +32°C° 0 mm 4 m/s 734 mmHg 43%
    14:00 +32°C° 0,1 mm 4 m/s 734 mmHg 46%
    15:00 +30°C° 0,1 mm 4 m/s 734 mmHg 48%
    16:00 +30°C° 0,1 mm 4 m/s 734 mmHg 51%
    17:00 +28°C° 0,3 mm 4 m/s 734 mmHg 57%
    18:00 +26°C° 0,3 mm 3 m/s 734 mmHg 64%
    19:00 +25°C° 0,3 mm 3 m/s 734 mmHg 71%
    20:00 +24°C° 0,3 mm 3 m/s 734 mmHg 73%
    21:00 +22°C° 0,3 mm 3 m/s 734 mmHg 74%
    22:00 +21°C° 0,3 mm 2 m/s 735 mmHg 76%
    23:00 +20°C° 0 mm 2 m/s 735 mmHg 76%

    19 Julho, Quinta-feira

    Tempo Temperatura Precipitação Vento Pressão Humidade
    00:00 +20°C° 0 mm 2 m/s 734 mmHg 75%
    01:00 +19°C° 0 mm 2 m/s 734 mmHg 75%
    02:00 +19°C° 0 mm 2 m/s 734 mmHg 75%
    03:00 +19°C° 0 mm 2 m/s 734 mmHg 75%
    04:00 +19°C° 0 mm 2 m/s 734 mmHg 75%
    05:00 +21°C° 0 mm 1 m/s 734 mmHg 70%
    06:00 +23°C° 0 mm 1 m/s 734 mmHg 65%
    07:00 +25°C° 0 mm 1 m/s 734 mmHg 60%
    08:00 +26°C° 0 mm 1 m/s 734 mmHg 57%
    09:00 +27°C° 0 mm 1 m/s 735 mmHg 54%
    10:00 +28°C° 0 mm 2 m/s 735 mmHg 51%
    11:00 +28°C° 0 mm 2 m/s 735 mmHg 52%
    12:00 +29°C° 0 mm 2 m/s 735 mmHg 52%
    13:00 +29°C° 0 mm 3 m/s 735 mmHg 52%
    14:00 +29°C° 0,1 mm 3 m/s 735 mmHg 53%
    15:00 +29°C° 0,1 mm 3 m/s 735 mmHg 54%
    16:00 +29°C° 0,1 mm 4 m/s 735 mmHg 55%
    17:00 +28°C° 0 mm 3 m/s 735 mmHg 61%
    18:00 +26°C° 0 mm 2 m/s 735 mmHg 66%
    19:00 +25°C° 0 mm 2 m/s 735 mmHg 72%
    20:00 +24°C° 0,1 mm 2 m/s 735 mmHg 74%
    21:00 +23°C° 0,1 mm 2 m/s 735 mmHg 76%
    22:00 +21°C° 0,1 mm 2 m/s 736 mmHg 78%
    23:00 +21°C° 0 mm 2 m/s 736 mmHg 79%

    20 Julho, Sexta-feira

    Tempo Temperatura Precipitação Vento Pressão Humidade
    00:00 +21°C° 0 mm 2 m/s 736 mmHg 79%
    01:00 +20°C° 0 mm 2 m/s 735 mmHg 79%
    02:00 +20°C° 0 mm 2 m/s 735 mmHg 79%
    03:00 +20°C° 0 mm 2 m/s 735 mmHg 80%
    04:00 +20°C° 0 mm 2 m/s 735 mmHg 80%
    05:00 +21°C° 0 mm 2 m/s 736 mmHg 75%
    06:00 +24°C° 0 mm 2 m/s 736 mmHg 70%
    07:00 +26°C° 0 mm 2 m/s 736 mmHg 66%
    08:00 +27°C° 0 mm 2 m/s 736 mmHg 60%
    09:00 +29°C° 0 mm 2 m/s 736 mmHg 55%
    10:00 +30°C° 0 mm 2 m/s 736 mmHg 50%
    11:00 +31°C° 0 mm 2 m/s 736 mmHg 49%
    12:00 +31°C° 0 mm 3 m/s 736 mmHg 48%
    13:00 +33°C° 0 mm 3 m/s 735 mmHg 47%
    14:00 +33°C° 0,1 mm 3 m/s 735 mmHg 49%
    15:00 +31°C° 0,1 mm 3 m/s 735 mmHg 50%
    16:00 +31°C° 0,1 mm 3 m/s 735 mmHg 52%
    17:00 +29°C° 0 mm 2 m/s 735 mmHg 59%
    18:00 +27°C° 0 mm 2 m/s 735 mmHg 66%
    19:00 +26°C° 0 mm 1 m/s 735 mmHg 73%
    20:00 +25°C° 0 mm 1 m/s 736 mmHg 75%
    21:00 +24°C° 0 mm 1 m/s 736 mmHg 77%
    22:00 +23°C° 0 mm 1 m/s 736 mmHg 79%
    23:00 +23°C° 0 mm 1 m/s 736 mmHg 80%
    Mostrar mais